TimeCDT,TemperatureF,Dew PointF,Humidity,Sea Level PressureIn,VisibilityMPH,Wind Direction,Wind SpeedMPH,Gust SpeedMPH,PrecipitationIn,Events,Conditions,WindDirDegrees,DateUTC
12:52 AM,66.9,64.9,93,29.96,4.0,SE,3.5,-,N/A,,Mostly Cloudy,130,2013-09-18 05:52:00
1:52 AM,66.9,64.0,90,29.95,5.0,ESE,5.8,-,N/A,,Clear,120,2013-09-18 06:52:00
2:52 AM,68.0,64.9,90,29.94,5.0,ESE,4.6,-,N/A,,Clear,120,2013-09-18 07:52:00
3:52 AM,68.0,64.9,90,29.92,5.0,SE,6.9,-,N/A,,Clear,130,2013-09-18 08:52:00
4:52 AM,68.0,64.9,90,29.91,6.0,ESE,5.8,-,N/A,,Clear,120,2013-09-18 09:52:00
5:52 AM,68.0,64.9,90,29.91,6.0,SE,6.9,-,N/A,,Clear,130,2013-09-18 10:52:00
6:52 AM,68.0,66.0,93,29.92,6.0,ESE,5.8,-,N/A,,Partly Cloudy,120,2013-09-18 11:52:00
7:52 AM,70.0,66.9,90,29.93,5.0,ESE,5.8,-,N/A,,Mostly Cloudy,120,2013-09-18 12:52:00
8:52 AM,73.0,66.9,81,29.93,7.0,South,9.2,-,N/A,,Scattered Clouds,170,2013-09-18 13:52:00
9:52 AM,75.9,68.0,76,29.93,7.0,South,8.1,-,N/A,,Partly Cloudy,170,2013-09-18 14:52:00
10:52 AM,80.1,69.1,69,29.92,9.0,South,8.1,-,N/A,,Clear,190,2013-09-18 15:52:00
11:52 AM,86.0,69.1,57,29.89,10.0,South,16.1,-,N/A,,Clear,190,2013-09-18 16:52:00
12:52 PM,88.0,70.0,55,29.87,10.0,South,16.1,24.2,N/A,,Clear,180,2013-09-18 17:52:00
1:52 PM,91.0,68.0,47,29.84,10.0,SSW,18.4,25.3,N/A,,Clear,200,2013-09-18 18:52:00
2:52 PM,91.9,68.0,45,29.81,10.0,South,15.0,24.2,N/A,,Clear,190,2013-09-18 19:52:00
3:52 PM,91.0,69.1,48,29.80,10.0,South,20.7,28.8,N/A,,Clear,170,2013-09-18 20:52:00
4:52 PM,91.0,69.1,48,29.78,10.0,South,18.4,27.6,N/A,,Clear,180,2013-09-18 21:52:00
5:52 PM,90.0,69.1,50,29.78,10.0,South,12.7,20.7,N/A,,Clear,170,2013-09-18 22:52:00
6:52 PM,87.1,68.0,53,29.79,10.0,South,9.2,-,N/A,,Clear,180,2013-09-18 23:52:00
7:52 PM,82.0,69.1,65,29.81,10.0,SSE,8.1,-,N/A,,Clear,160,2013-09-19 00:52:00
8:52 PM,80.1,69.1,69,29.82,10.0,SSE,8.1,-,N/A,,Clear,160,2013-09-19 01:52:00
9:52 PM,77.0,69.1,76,29.84,10.0,SSE,5.8,-,N/A,,Clear,160,2013-09-19 02:52:00
10:52 PM,79.0,69.1,72,29.84,10.0,South,10.4,-,N/A,,Clear,170,2013-09-19 03:52:00
11:52 PM,79.0,68.0,69,29.84,10.0,South,9.2,-,N/A,,Clear,180,2013-09-19 04:52:00